Weather History for Ukiah, CA

Change the Weather History Date:

Saturday, July 6, 2013

  Actual Average Record
Temperature  
Mean Temperature 77 °F 73 °F  
Max Temperature 95 °F 90 °F 105 °F (1932)
Min Temperature 58 °F 56 °F 41 °F (1954)
Degree Days  
Heating Degree Days 0 0  
Month to date heating degree days 0  
Since 1 June heating degree days 32  
Since 1 July heating degree days 0  
Cooling Degree Days 10 8  
Month to date cooling degree days 45  
Year to date cooling degree days 209  
Since 1 June cooling degree days 157  
Growing Degree Days 25 (Base 50)    
Moisture  
Dew Point 54 °F    
Average Humidity 55    
Maximum Humidity 77    
Minimum Humidity 32    
Precipitation  
Precipitation 0.00 in 0.00 in 0.00 in (2014)
Month to date precipitation 0.03 0.02  
Year to date precipitation 5.61 23.40  
Since 1 July precipitation 0.03 0.02  
Snow  
Snow 0.00 in - - ()
Month to date snowfall 0.0  
Since 1 June snowfall 0.0  
Since 1 July snowfall 0.0  
Snow Depth -    
Sea Level Pressure  
Sea Level Pressure 29.70 in    
Wind  
Wind Speed 6 mph (SE)    
Max Wind Speed 14 mph    
Max Gust Speed 17 mph    
Visibility 10 miles    
Events      
T = Trace of Precipitation, MM = Missing Value Source: NWS Daily Summary

Daily Weather History Graph

Daily Weather History Graph

Search for Another Location

Airport:

Trip Planner

Search our weather history database for the weather conditions in past years. The results will help you decide how hot, cold, wet, or windy it might be!

Date:

Astronomy

Jul. 06, 2013 Rise Set
Actual Time 5:53 AM PDT 8:41 PM PDT
Civil Twilight 5:21 AM PDT 9:13 PM PDT
Nautical Twilight 4:41 AM PDT 9:53 PM PDT
Astronomical Twilight 3:55 AM PDT 10:38 PM PDT
Moon 4:43 AM PDT (7/6) 7:27 PM PDT (7/6)
Length of Visible Light 15h 51m
Length of Day
14h 48m
Waning Crescent, 2% of the Moon is Illuminated
Jul 6
Waning Crescent
Jul 8
New
Jul 15
First Quarter
Jul 22
Full
Jul 29
Last Quarter

Hourly Weather History & Observations

Time (PDT) Temp. Heat Index Dew Point Humidity Pressure Visibility Wind Dir Wind Speed Gust Speed Precip Events Conditions
12:56 AM 66.0 °F - 51.1 °F 59% 29.70 in 10.0 mi Calm Calm - N/A   Clear
1:56 AM 64.0 °F - 54.0 °F 70% 29.70 in 10.0 mi Calm Calm - N/A   Clear
2:56 AM 63.0 °F - 51.1 °F 65% 29.71 in 10.0 mi SSE 4.6 mph - N/A   Clear
3:56 AM 61.0 °F - 51.1 °F 70% 29.70 in 10.0 mi South 4.6 mph - N/A   Clear
4:56 AM 59.0 °F - 50.0 °F 72% 29.71 in 10.0 mi SSE 4.6 mph - N/A   Clear
5:56 AM 57.9 °F - 50.0 °F 75% 29.73 in 10.0 mi South 3.5 mph - N/A   Clear
6:56 AM 59.0 °F - 50.0 °F 72% 29.74 in 10.0 mi SSE 5.8 mph - N/A   Clear
7:56 AM 62.1 °F - 51.1 °F 67% 29.74 in 10.0 mi SE 4.6 mph - N/A   Clear
8:56 AM 66.0 °F - 52.0 °F 60% 29.74 in 10.0 mi Calm Calm - N/A   Clear
9:56 AM 72.0 °F - 53.1 °F 51% 29.73 in 10.0 mi ESE 4.6 mph - N/A   Clear
10:56 AM 77.0 °F - 54.0 °F 45% 29.73 in 10.0 mi SE 6.9 mph - N/A   Clear
11:56 AM 82.0 °F 81.4 °F 55.0 °F 39% 29.72 in 10.0 mi SE 5.8 mph - N/A   Clear
12:56 PM 87.1 °F 85.9 °F 57.0 °F 36% 29.70 in 10.0 mi SE 10.4 mph - N/A   Clear
1:56 PM 90.0 °F 88.8 °F 57.9 °F 34% 29.69 in 10.0 mi SE 10.4 mph - N/A   Clear
2:56 PM 91.9 °F 90.8 °F 57.9 °F 32% 29.67 in 10.0 mi SE 10.4 mph - N/A   Clear
3:56 PM 93.9 °F 93.2 °F 59.0 °F 31% 29.65 in 10.0 mi SE 11.5 mph - N/A   Clear
4:56 PM 93.9 °F 92.6 °F 57.0 °F 29% 29.65 in 10.0 mi Variable 3.5 mph - N/A   Clear
5:56 PM 91.0 °F 88.9 °F 55.0 °F 29% 29.65 in 10.0 mi North 9.2 mph - N/A   Clear
6:56 PM 88.0 °F 85.9 °F 54.0 °F 31% 29.67 in 10.0 mi North 6.9 mph - N/A   Clear
7:56 PM 84.0 °F 82.5 °F 53.1 °F 34% 29.68 in 10.0 mi North 5.8 mph - N/A   Clear
8:56 PM 78.1 °F - 54.0 °F 43% 29.70 in 10.0 mi SE 4.6 mph - N/A   Clear
9:56 PM 75.9 °F - 55.9 °F 50% 29.73 in 10.0 mi South 4.6 mph - N/A   Clear
10:56 PM 73.0 °F - 55.9 °F 55% 29.73 in 10.0 mi SSE 3.5 mph - N/A   Clear
11:56 PM 70.0 °F - 55.0 °F 59% 29.73 in 10.0 mi SSE 5.8 mph - N/A   Clear